This is the latest recevied weather packets stored in our database for station/object K7DC. If no packets are shown the sender has not sent any weather packets the latest 10 day(s).
| Time | Temp. | Humidity | Pressure | Rain* | Wind** | Luminosity | Snow |
|---|---|---|---|---|---|---|---|
| 1788389633 | 28.89° C | 47% | 1015.6 hPa | 0 mm | - | 250 W/m² | - |
| 1788389331 | 28.89° C | 47% | 1015.9 hPa | 0 mm | - | 162 W/m² | - |
| 1788389026 | 30° C | 48% | 1015.9 hPa | 0 mm | - | 144 W/m² | - |
| 1788388723 | 30.56° C | 46% | 1016 hPa | 0 mm | - | 263 W/m² | - |
| 1788388422 | 30° C | 46% | 1015.7 hPa | 0 mm | - | 577 W/m² | - |
| 1788388117 | 30.56° C | 45% | 1015.6 hPa | 0 mm | - | 620 W/m² | - |
| 1788387816 | 30.56° C | 46% | 1015.9 hPa | 0 mm | - | 640 W/m² | - |
| 1788387510 | 30.56° C | 52% | 1016.3 hPa | 0 mm | - | 692 W/m² | - |
| 1788387209 | 29.44° C | 53% | 1016 hPa | 0 mm | - | 718 W/m² | - |
| 1788386905 | 29.44° C | 55% | 1016 hPa | 0 mm | - | 743 W/m² | - |
| 1788386605 | 28.33° C | 53% | 1015.9 hPa | 0 mm | - | 374 W/m² | - |
| 1788386301 | 27.78° C | 54% | 1016.3 hPa | 0 mm | - | 358 W/m² | - |
| 1788386001 | 27.22° C | 57% | 1016 hPa | 0 mm | - | 122 W/m² | - |
| 1788385697 | 27.22° C | 55% | 1016.4 hPa | 0 mm | - | 106 W/m² | - |
| 1788385395 | 27.22° C | 56% | 1016.3 hPa | 0 mm | - | 104 W/m² | - |
| 1788385091 | 27.22° C | 57% | 1016.3 hPa | 0 mm | - | 96 W/m² | - |
| 1788384787 | 26.67° C | 59% | 1016.1 hPa | 0 mm | - | 115 W/m² | - |
| 1788384485 | 25.56° C | 64% | 1016.4 hPa | 0 mm | - | 117 W/m² | - |
| 1788384203 | 25° C | 70% | 1016.1 hPa | 0 mm | - | 154 W/m² | - |
| 1788383878 | 24.44° C | 70% | 1016.3 hPa | 0 mm | - | 245 W/m² | - |
| 1788383574 | 23.89° C | 76% | 1016.4 hPa | 0 mm | - | 211 W/m² | - |
| 1788383273 | 23.89° C | 77% | 1016.5 hPa | 1.78 mm | - | 184 W/m² | - |
| 1788382968 | 23.33° C | 78% | 1016.7 hPa | 0 mm | - | 153 W/m² | - |
| 1788382666 | 23.33° C | 75% | 1017 hPa | 1.27 mm | - | 109 W/m² | - |
| 1788382362 | 23.89° C | 74% | 1017.1 hPa | 0 mm | - | 89 W/m² | - |
* Rain latest hour (hover to see other rain measurements)
** Current wind speed in m/s (hover to see current wind gust speed)